When you browse on this site, cookies collect data to enhance your experience and personalize the content and advertising you see.
Visit our Privacy Policy to learn more. By continuing to use the site, you agree to this use of cookies and data.

Tiempo cada hora Tuzla

Hoy, 22 Septiembre, Martes

Tiempo Temperatura Precipitaciones Viento Presión Humedad
00:00 +16°C° 0.2 mm 1 mps 722 mmHg 85%
01:00 +16°C° 0 mm 1 mps 722 mmHg 85%
02:00 +15°C° 0.1 mm 1 mps 722 mmHg 86%
03:00 +15°C° 0.1 mm 1 mps 722 mmHg 87%
04:00 +15°C° 0.1 mm 1 mps 722 mmHg 88%
05:00 +16°C° 0 mm 1 mps 722 mmHg 86%
06:00 +18°C° 0 mm 1 mps 722 mmHg 84%
07:00 +18°C° 0 mm 1 mps 722 mmHg 82%
08:00 +21°C° 0 mm 1 mps 722 mmHg 72%
09:00 +24°C° 0 mm 1 mps 722 mmHg 61%
10:00 +26°C° 0 mm 1 mps 723 mmHg 51%
11:00 +27°C° 0 mm 1 mps 722 mmHg 47%
12:00 +28°C° 0 mm 1 mps 722 mmHg 43%
13:00 +29°C° 0 mm 1 mps 722 mmHg 40%
14:00 +28°C° 0.1 mm 1 mps 721 mmHg 46%
15:00 +26°C° 0.1 mm 1 mps 721 mmHg 53%
16:00 +25°C° 0.1 mm 2 mps 720 mmHg 59%
17:00 +23°C° 0.6 mm 2 mps 720 mmHg 68%
18:00 +21°C° 0.6 mm 1 mps 720 mmHg 78%
19:00 +19°C° 0.6 mm 1 mps 720 mmHg 87%
20:00 +18°C° 0.1 mm 1 mps 720 mmHg 88%
21:00 +17°C° 0.1 mm 2 mps 720 mmHg 89%
22:00 +16°C° 0.1 mm 2 mps 720 mmHg 90%
23:00 +16°C° 0 mm 2 mps 720 mmHg 90%

Mañana, 23 Septiembre, Miércoles

Tiempo Temperatura Precipitaciones Viento Presión Humedad
00:00 +16°C° 0 mm 2 mps 720 mmHg 90%
01:00 +16°C° 0 mm 2 mps 720 mmHg 91%
02:00 +16°C° 0.2 mm 2 mps 719 mmHg 91%
03:00 +16°C° 0.2 mm 2 mps 719 mmHg 90%
04:00 +16°C° 0.2 mm 2 mps 719 mmHg 90%
05:00 +16°C° 0.3 mm 2 mps 719 mmHg 90%
06:00 +17°C° 0.3 mm 2 mps 719 mmHg 90%
07:00 +17°C° 0.3 mm 2 mps 719 mmHg 89%
08:00 +19°C° 0.2 mm 2 mps 719 mmHg 81%
09:00 +21°C° 0.2 mm 2 mps 719 mmHg 73%
10:00 +24°C° 0.2 mm 2 mps 720 mmHg 64%
11:00 +25°C° 0.4 mm 2 mps 719 mmHg 60%
12:00 +26°C° 0.4 mm 2 mps 719 mmHg 56%
13:00 +27°C° 0.4 mm 2 mps 719 mmHg 52%
14:00 +26°C° 0.7 mm 2 mps 719 mmHg 57%
15:00 +25°C° 0.7 mm 2 mps 719 mmHg 62%
16:00 +24°C° 0.7 mm 2 mps 718 mmHg 67%
17:00 +21°C° 0.4 mm 2 mps 718 mmHg 73%
18:00 +19°C° 0.4 mm 2 mps 718 mmHg 79%
19:00 +17°C° 0.4 mm 2 mps 718 mmHg 85%
20:00 +17°C° 0 mm 2 mps 718 mmHg 86%
21:00 +16°C° 0 mm 2 mps 719 mmHg 88%
22:00 +16°C° 0 mm 2 mps 719 mmHg 89%
23:00 +15°C° 0 mm 2 mps 719 mmHg 90%

Pasado mañana, 24 Septiembre, Jueves

Tiempo Temperatura Precipitaciones Viento Presión Humedad
00:00 +15°C° 0 mm 2 mps 719 mmHg 90%
01:00 +15°C° 0 mm 2 mps 719 mmHg 90%
02:00 +15°C° 0 mm 2 mps 719 mmHg 90%
03:00 +14°C° 0 mm 2 mps 719 mmHg 90%
04:00 +14°C° 0 mm 1 mps 718 mmHg 90%
05:00 +15°C° 0 mm 1 mps 719 mmHg 88%
06:00 +16°C° 0 mm 1 mps 719 mmHg 85%
07:00 +16°C° 0 mm 1 mps 719 mmHg 83%
08:00 +20°C° 0 mm 1 mps 719 mmHg 72%
09:00 +23°C° 0 mm 1 mps 719 mmHg 61%
10:00 +26°C° 0 mm 1 mps 720 mmHg 50%
11:00 +26°C° 0 mm 1 mps 720 mmHg 47%
12:00 +27°C° 0 mm 1 mps 720 mmHg 43%
13:00 +28°C° 0 mm 2 mps 720 mmHg 40%
14:00 +27°C° 0 mm 1 mps 719 mmHg 43%
15:00 +27°C° 0 mm 1 mps 719 mmHg 46%
16:00 +26°C° 0 mm 1 mps 719 mmHg 49%
17:00 +24°C° 0 mm 1 mps 719 mmHg 54%
18:00 +22°C° 0 mm 1 mps 719 mmHg 60%
19:00 +20°C° 0 mm 1 mps 719 mmHg 66%
20:00 +19°C° 0 mm 1 mps 719 mmHg 70%
21:00 +18°C° 0 mm 1 mps 719 mmHg 74%
22:00 +18°C° 0 mm 1 mps 719 mmHg 78%
23:00 +16°C° 0 mm 2 mps 719 mmHg 81%

25 Septiembre, Viernes

Tiempo Temperatura Precipitaciones Viento Presión Humedad
00:00 +16°C° 0 mm 2 mps 718 mmHg 84%
01:00 +15°C° 0 mm 2 mps 718 mmHg 86%
02:00 +15°C° 0 mm 2 mps 717 mmHg 87%
03:00 +15°C° 0 mm 2 mps 717 mmHg 87%
04:00 +15°C° 0 mm 2 mps 716 mmHg 87%
05:00 +16°C° 0 mm 2 mps 716 mmHg 83%
06:00 +16°C° 0 mm 2 mps 716 mmHg 79%
07:00 +17°C° 0 mm 2 mps 716 mmHg 75%
08:00 +19°C° 0 mm 3 mps 715 mmHg 69%
09:00 +21°C° 0 mm 3 mps 715 mmHg 63%
10:00 +22°C° 0 mm 4 mps 715 mmHg 57%
11:00 +23°C° 0 mm 4 mps 715 mmHg 58%
12:00 +23°C° 0 mm 4 mps 714 mmHg 60%
13:00 +23°C° 0 mm 4 mps 714 mmHg 61%
14:00 +22°C° 0 mm 4 mps 713 mmHg 64%
15:00 +21°C° 0 mm 3 mps 713 mmHg 68%
16:00 +21°C° 0 mm 2 mps 712 mmHg 71%
17:00 +20°C° 0.1 mm 3 mps 711 mmHg 75%
18:00 +19°C° 0.1 mm 3 mps 711 mmHg 79%
19:00 +18°C° 0.1 mm 3 mps 710 mmHg 82%
20:00 +18°C° 0.2 mm 3 mps 710 mmHg 84%
21:00 +18°C° 0.2 mm 2 mps 709 mmHg 85%
22:00 +17°C° 0.2 mm 2 mps 708 mmHg 87%
23:00 +17°C° 0.3 mm 2 mps 708 mmHg 89%

26 Septiembre, Sábado

Tiempo Temperatura Precipitaciones Viento Presión Humedad
00:00 +17°C° 0.3 mm 2 mps 707 mmHg 91%
01:00 +17°C° 0.3 mm 2 mps 706 mmHg 93%
02:00 +16°C° 1 mm 1 mps 706 mmHg 93%
03:00 +16°C° 1 mm 1 mps 705 mmHg 94%
04:00 +16°C° 1 mm 1 mps 705 mmHg 94%
05:00 +16°C° 1 mm 1 mps 705 mmHg 92%
06:00 +15°C° 1 mm 1 mps 705 mmHg 90%
07:00 +14°C° 1 mm 1 mps 705 mmHg 88%
08:00 +15°C° 0.4 mm 1 mps 706 mmHg 82%
09:00 +16°C° 0.4 mm 2 mps 706 mmHg 77%
10:00 +16°C° 0.4 mm 2 mps 707 mmHg 72%
11:00 +15°C° 0.8 mm 2 mps 707 mmHg 77%
12:00 +14°C° 0.8 mm 2 mps 707 mmHg 82%
13:00 +13°C° 0.8 mm 2 mps 707 mmHg 88%
14:00 +12°C° 3 mm 2 mps 707 mmHg 90%
15:00 +10°C° 3 mm 2 mps 708 mmHg 93%
16:00 +9°C° 3 mm 2 mps 708 mmHg 95%
17:00 +10°C° 1.8 mm 1 mps 708 mmHg 95%
18:00 +9°C° 1.8 mm 1 mps 709 mmHg 96%
19:00 +9°C° 1.8 mm 1 mps 709 mmHg 96%
20:00 +9°C° 0.2 mm 1 mps 710 mmHg 95%
21:00 +9°C° 0.2 mm 1 mps 710 mmHg 95%
22:00 +9°C° 0.2 mm 1 mps 711 mmHg 94%
23:00 +9°C° 0 mm 1 mps 711 mmHg 93%

27 Septiembre, Domingo

Tiempo Temperatura Precipitaciones Viento Presión Humedad
00:00 +8°C° 0 mm 1 mps 711 mmHg 93%
01:00 +8°C° 0 mm 1 mps 711 mmHg 92%
02:00 +8°C° 0 mm 1 mps 711 mmHg 91%
03:00 +7°C° 0 mm 0 mps 712 mmHg 90%
04:00 +7°C° 0 mm 0 mps 712 mmHg 89%
05:00 +8°C° 0.2 mm 0 mps 713 mmHg 89%
06:00 +9°C° 0.2 mm 1 mps 713 mmHg 88%
07:00 +9°C° 0.2 mm 1 mps 714 mmHg 88%
08:00 +10°C° 0.2 mm 1 mps 714 mmHg 84%
09:00 +9°C° 0.2 mm 2 mps 714 mmHg 80%
10:00 +10°C° 0.2 mm 2 mps 714 mmHg 77%
11:00 +12°C° 0 mm 2 mps 714 mmHg 73%
12:00 +12°C° 0 mm 3 mps 714 mmHg 70%
13:00 +13°C° 0 mm 3 mps 714 mmHg 67%
14:00 +12°C° 0.2 mm 3 mps 713 mmHg 71%
15:00 +12°C° 0.2 mm 3 mps 713 mmHg 75%
16:00 +11°C° 0.2 mm 3 mps 712 mmHg 79%
17:00 +11°C° 0.6 mm 3 mps 712 mmHg 84%
18:00 +10°C° 0.6 mm 2 mps 712 mmHg 90%
19:00 +10°C° 0.6 mm 1 mps 712 mmHg 95%
20:00 +10°C° 0.1 mm 1 mps 712 mmHg 95%
21:00 +9°C° 0.1 mm 1 mps 712 mmHg 96%
22:00 +9°C° 0.1 mm 1 mps 712 mmHg 96%
23:00 +9°C° 0.1 mm 1 mps 712 mmHg 96%
Mostrar más